Regional Weather Roundup
Issued by NWS

Current Version | Previous Version | Text Only | Print | Product List | Glossary On
Versions: 1 2 3 4 5 6 7 8 9 10 11 12 13 14 15 16 17 18 19 20 21 22 23 24 25 26 27 28 29 30 31 32 33 34 35 36 37 38 39 40 41 42 43 44 45 46 47 48 49 50
000
ASUS45 KBOU 270907
RWRCO

WEATHER ROUNDUP FOR COLORADO
NATIONAL WEATHER SERVICE DENVER/BOULDER CO
300 AM MDT WED MAY 27 2015

NOTE: "FAIR" INDICATES FEW OR NO CLOUDS BELOW 12000 FEET WITH NO
SIGNIFICANT WEATHER AND/OR OBSTRUCTIONS TO VISIBILITY.

COZ001>005-013-030-031-271000-
...NORTHWEST COLORADO...

CITY           SKY/WX    TMP DP  RH WIND       PRES   REMARKS
CRAIG          CLOUDY    50  42  74 CALM      30.13S
HAYDEN         CLOUDY    46  39  76 NE5       30.15S
MEEKER         CLOUDY    47  44  90 N3        30.14F
MOUNT WERNER   NOT AVBL
STEAMBOAT SPGS CLOUDY    45  43  93 SE5       30.16S
WALDEN         CLOUDY    41  36  81 SW7       30.19R
$$

COZ006>008-011-271000-
...WEST CENTRAL VALLEYS...

CITY           SKY/WX    TMP DP  RH WIND       PRES   REMARKS
GRAND JUNCTION PTCLDY    49  47  93 W3        30.10S
MONTROSE       MOCLDY    45  43  93 SE7       30.16S
EAGLE          MOCLDY    46  43  87 CALM      30.19S
RIFLE          CLOUDY    48  45  89 CALM      30.13S
DELTA          PTCLDY    47  45  90 MISG      30.13S
NUCLA          PTCLDY    46  41  81 E9        30.19S
$$

COZ017>023-064>068-271000-
...SOUTHWEST COLORADO...

CITY           SKY/WX    TMP DP  RH WIND       PRES   REMARKS
DURANGO        MOCLDY    47  42  83 E9        30.18F
CORTEZ         PTCLDY    43  39  86 NE5       30.15R
PAGOSA SPRINGS RAIN      46  41  82 N6        30.27R
TELLURIDE      MOCLDY    41  36  80 SE10      30.31S
WOLF CREEK PAS NOT AVBL
$$

COZ009-010-012-014-032>034-037-058>063-271000-
...CENTRAL COLORADO...

CITY           SKY/WX    TMP DP  RH WIND       PRES   REMARKS
ASPEN          NOT AVBL
BUENA VISTA    CLOUDY    45  36  70 E5        30.21S
COPPER MTN     CLOUDY    37  32  81 SW9G22    30.36S
BERTHOUD PASS  MOCLDY    28  21  74 W28       30.36R WCI  13
COTTONWOOD PAS CLOUDY    45  32  61 CALM      30.29S
GUNNISON       PTCLDY    37  32  81 N3        30.27R
KREMMLING      CLOUDY    45  37  76 E5        30.20S
LEADVILLE      MOCLDY    37  31  78 VRB3      30.27S
MONARCH PASS   FOG       32  30  93 W23       30.47S VSB<1/4 WCI  19
SALIDA         PTCLDY    48  36  62 SW6       30.27S
SUNLIGHT       CLOUDY    36  36 100 CALM      30.33S
WILKERSON PASS PTCLDY    34  30  86 SW8       30.36R WCI  27
$$

COZ069>075-271000-
...SAN LUIS VALLEY/SANGRE DE CRISTO MOUNTAINS...

CITY           SKY/WX    TMP DP  RH WIND       PRES   REMARKS
ALAMOSA        CLEAR     38  35  89 CALM      30.23R
LA VETA PASS   PTCLDY   N/A N/A N/A MISG      30.31S
SAGUACHE       CLEAR     39  36  87 NW7       30.25R
$$

COZ035-036-038>040-271000-
...NORTHERN COLORADO FRONT RANGE...

CITY           SKY/WX    TMP DP  RH WIND       PRES   REMARKS
DENVER INTL AP MOCLDY    51  45  79 SW9       30.07R
DMNS CITY PARK   N/A     51  44  77 S3        30.06S
AURORA         MOCLDY    51  44  75 SW12      30.08R
FRONT RANGE AP MOCLDY    54  46  76 SW13      30.07S
ERIE MUNI ARPT PTCLDY    48  45  91 S3        30.05F
BOULDER MUN AP PTCLDY    52  43  71 SW6       30.06S
CENTENNIAL     PTCLDY    49  44  83 S7        30.09R
BROOMFIELD     PTCLDY    50  43  76 W3        30.08S
FORT COLLINS   MOCLDY    52  48  87 CALM      30.07S
LONGMONT       MOCLDY    49  46  88 CALM      30.08R
$$

COZ041-046-047-076>085-087-088-271000-
...PIKES PEAK/PALMER DIVIDE AND SOUTHERN FOOTHILLS...

CITY           SKY/WX    TMP DP  RH WIND       PRES   REMARKS
COLO. SPRINGS  MOCLDY    48  46  93 NW5       30.15S
A. F. ACADEMY  PTCLDY    42  42  99 N6        30.15S
ELLICOTT       MOCLDY   N/A N/A N/A N3        30.12F
FALCON         MOCLDY    46  43  90 CALM      30.16F
FORT CARSON    NOT AVBL
LIMON          CLOUDY    55  44  66 VRB7      30.07F
MONUMENT HILL    N/A     45  41  87 MISG      30.16S
TRINIDAD       CLEAR     51  44  77 W8        30.11F
$$

COZ042>045-048>051-090-091-271000-
...NORTHEAST COLORADO...

CITY           SKY/WX    TMP DP  RH WIND       PRES   REMARKS
GREELEY ARPT   MOCLDY    50  46  87 CALM      30.05R
AKRON          MOCLDY    52  50  93 S9        30.05S
BURLINGTON     CLOUDY    54  50  86 SE8       30.07S
WRAY           PTCLDY    55  51  86 SE5       30.07S
STERLING       MOCLDY    50  50 100 CALM      30.03F
HOLYOKE        PTCLDY    59  52  77 S8        30.07R
FORT MORGAN    MOCLDY    52  49  89 SE3       30.05S
$$

COZ086-089-092>099-271000-
...SOUTHEAST COLORADO...

CITY           SKY/WX    TMP DP  RH WIND       PRES   REMARKS
PUEBLO         MOCLDY    52  49  89 W5        30.08S
LA JUNTA       CLOUDY    57  52  83 CALM      30.07R
LAMAR          CLOUDY    57  53  86 E10       30.03S
SPRINGFIELD      N/A     55  47  74 VRB7      30.08R
$$



USA.gov is the U.S. government's official web portal to all federal, state and local government web resources and services.